Weather History for Stevensville, MD

Change the Weather History Date:

Friday, January 18, 2013

  Actual Average (KESN) Record (KESN)
Temperature  
Mean Temperature 36 °F -  
Max Temperature 39 °F 41 °F 64 °F (2006)
Min Temperature 32 °F 22 °F -1 °F (1965)
Degree Days  
Heating Degree Days 30    
Moisture  
Dew Point 20 °F    
Average Humidity 55    
Maximum Humidity 81    
Minimum Humidity 35    
Precipitation  
Precipitation 0.00 in - - ()
Sea Level Pressure  
Sea Level Pressure 30.37 in    
Wind  
Wind Speed 10 mph (NW)    
Max Wind Speed 22 mph    
Max Gust Speed 30 mph    
Visibility 10 miles    
Events      
Averages and records for this station are not official NWS values.
T = Trace of Precipitation, MM = Missing Value Source: NWS Daily Summary

Daily Weather History Graph

Daily Weather History Graph

Search for Another Location

Airport:

Trip Planner

Search our weather history database for the weather conditions in past years. The results will help you decide how hot, cold, wet, or windy it might be!

Date:

Astronomy

Jan. 18, 2013 Rise Set
Actual Time 7:21 AM EST 5:10 PM EST
Civil Twilight 6:52 AM EST 5:39 PM EST
Nautical Twilight 6:19 AM EST 6:12 PM EST
Astronomical Twilight 5:47 AM EST 6:44 PM EST
Moon 11:02 AM EST (1/18) No Moon Set
Length of Visible Light 10h 47m
Length of Day
9h 49m
Waxing Crescent, 47% of the Moon is Illuminated
Jan 18
Waxing Crescent
Jan 18
First Quarter
Jan 26
Full
Feb 3
Last Quarter
Feb 10
New

Hourly Weather History & Observations

Time (EST) Temp. Windchill Dew Point Humidity Pressure Visibility Wind Dir Wind Speed Gust Speed Precip Events Conditions
12:12 AM 39.2 °F 34.2 °F 32.0 °F 75% 30.05 in 10.0 mi NW 6.9 mph - N/A   Clear
12:33 AM 37.4 °F 33.8 °F 32.0 °F 81% 30.06 in 10.0 mi NW 4.6 mph - N/A   Clear
12:55 AM 39.2 °F 33.6 °F 32.0 °F 75% 30.09 in 10.0 mi WNW 8.1 mph - N/A   Clear
1:16 AM 37.4 °F 32.8 °F 32.0 °F 81% 30.10 in 10.0 mi West 5.8 mph - N/A   Clear
1:37 AM 37.4 °F 30.8 °F 30.2 °F 75% 30.10 in 10.0 mi WNW 9.2 mph - N/A   Clear
1:59 AM 37.4 °F 28.9 °F 30.2 °F 75% 30.11 in 10.0 mi WNW 13.8 mph - N/A   Clear
2:20 AM 37.4 °F 30.8 °F 30.2 °F 75% 30.12 in 10.0 mi WNW 9.2 mph - N/A   Clear
2:41 AM 37.4 °F 30.8 °F 30.2 °F 75% 30.13 in 10.0 mi WNW 9.2 mph - N/A   Clear
3:03 AM 37.4 °F 31.4 °F 30.2 °F 75% 30.14 in 10.0 mi WNW 8.1 mph - N/A   Clear
3:24 AM 37.4 °F 30.8 °F 30.2 °F 75% 30.14 in 10.0 mi WNW 9.2 mph - N/A   Clear
4:28 AM 35.6 °F 29.2 °F 28.4 °F 75% 30.15 in 10.0 mi WNW 8.1 mph - N/A   Clear
4:49 AM 35.6 °F 27.5 °F 28.4 °F 75% 30.16 in 10.0 mi WNW 11.5 mph - N/A   Clear
5:10 AM 35.6 °F 27.1 °F 28.4 °F 75% 30.18 in 10.0 mi WNW 12.7 mph 17.3 mph N/A   Clear
5:32 AM 35.6 °F 26.2 °F 28.4 °F 75% 30.20 in 10.0 mi WNW 15.0 mph 21.9 mph N/A   Clear
5:53 AM 35.6 °F 25.5 °F 26.6 °F 70% 30.21 in 10.0 mi WNW 17.3 mph 24.2 mph N/A   Clear
6:14 AM 35.6 °F 25.2 °F 28.4 °F 75% 30.23 in 10.0 mi NW 18.4 mph 29.9 mph N/A   Clear
6:36 AM 35.6 °F 25.2 °F 23.0 °F 60% 30.25 in 10.0 mi NW 18.4 mph 28.8 mph N/A   Clear
6:57 AM 35.6 °F 24.2 °F 24.8 °F 65% 30.27 in 10.0 mi NW 21.9 mph 28.8 mph N/A   Clear
7:18 AM 35.6 °F 24.5 °F 23.0 °F 60% 30.29 in 10.0 mi NNW 20.7 mph 26.5 mph N/A   Clear
7:39 AM 35.6 °F 24.8 °F 23.0 °F 60% 30.32 in 10.0 mi NNW 19.6 mph 28.8 mph N/A   Clear
8:01 AM 33.8 °F 22.8 °F 19.4 °F 56% 30.34 in 10.0 mi NNW 18.4 mph 28.8 mph N/A   Scattered Clouds
8:22 AM 35.6 °F 25.5 °F 19.4 °F 52% 30.37 in 10.0 mi NNW 17.3 mph 26.5 mph N/A   Mostly Cloudy
8:43 AM 33.8 °F 24.8 °F 17.6 °F 52% 30.39 in 10.0 mi North 12.7 mph 25.3 mph N/A   Mostly Cloudy
9:04 AM 33.8 °F 22.5 °F 17.6 °F 52% 30.41 in 10.0 mi NNW 19.6 mph 27.6 mph N/A   Mostly Cloudy
9:26 AM 33.8 °F 23.2 °F 15.8 °F 48% 30.43 in 10.0 mi NNW 17.3 mph 23.0 mph N/A   Scattered Clouds
9:47 AM 33.8 °F 25.3 °F 17.6 °F 52% 30.45 in 10.0 mi North 11.5 mph 20.7 mph N/A   Clear
10:29 AM 35.6 °F 27.1 °F 17.6 °F 48% 30.46 in 10.0 mi NNW 12.7 mph 20.7 mph N/A   Clear
10:51 AM 35.6 °F 27.1 °F 17.6 °F 48% 30.46 in 10.0 mi NNW 12.7 mph 21.9 mph N/A   Clear
11:12 AM 35.6 °F 26.2 °F 17.6 °F 48% 30.46 in 10.0 mi North 15.0 mph 18.4 mph N/A   Clear
11:33 AM 35.6 °F 26.6 °F 14.0 °F 41% 30.46 in 10.0 mi NNW 13.8 mph 18.4 mph N/A   Clear
11:55 AM 35.6 °F 27.5 °F 14.0 °F 41% 30.46 in 10.0 mi NNW 11.5 mph 18.4 mph N/A   Clear
12:16 PM 33.8 °F 24.8 °F 12.2 °F 41% 30.46 in 10.0 mi NNW 12.7 mph - N/A   Clear
12:37 PM 33.8 °F 24.8 °F 12.2 °F 41% 30.46 in 10.0 mi NNW 12.7 mph 20.7 mph N/A   Clear
12:58 PM 33.8 °F 24.8 °F 12.2 °F 41% 30.45 in 10.0 mi NNW 12.7 mph 18.4 mph N/A   Clear
1:41 PM 35.6 °F 28.6 °F 12.2 °F 38% 30.46 in 10.0 mi North 9.2 mph - N/A   Clear
2:02 PM 35.6 °F 28.0 °F 12.2 °F 38% 30.47 in 10.0 mi North 10.4 mph - N/A   Clear
2:23 PM 35.6 °F 29.2 °F 12.2 °F 38% 30.48 in 10.0 mi NNW 8.1 mph - N/A   Clear
2:45 PM 35.6 °F 29.9 °F 12.2 °F 38% 30.48 in 10.0 mi North 6.9 mph - N/A   Clear
3:06 PM 35.6 °F 29.9 °F 12.2 °F 38% 30.48 in 10.0 mi North 6.9 mph - N/A   Clear
3:27 PM 35.6 °F 31.7 °F 10.4 °F 35% 30.49 in 10.0 mi NNW 4.6 mph - N/A   Clear
3:48 PM 35.6 °F 29.2 °F 10.4 °F 35% 30.49 in 10.0 mi NNW 8.1 mph - N/A   Clear
4:10 PM 35.6 °F 31.7 °F 12.2 °F 38% 30.49 in 10.0 mi NNW 4.6 mph - N/A   Clear
4:31 PM 35.6 °F 30.7 °F 10.4 °F 35% 30.50 in 10.0 mi NW 5.8 mph - N/A   Clear
4:52 PM 33.8 °F 29.6 °F 10.4 °F 38% 30.51 in 10.0 mi NNW 4.6 mph - N/A   Clear
5:13 PM 33.8 °F 29.6 °F 12.2 °F 41% 30.51 in 10.0 mi WNW 4.6 mph - N/A   Clear
5:35 PM 33.8 °F 27.7 °F 12.2 °F 41% 30.51 in 10.0 mi WNW 6.9 mph - N/A   Clear
5:56 PM 33.8 °F 27.7 °F 12.2 °F 41% 30.51 in 10.0 mi West 6.9 mph - N/A   Clear
6:17 PM 33.8 °F 30.8 °F 12.2 °F 41% 30.52 in 10.0 mi West 3.5 mph - N/A   Clear
6:39 PM 33.8 °F - 10.4 °F 38% 30.52 in 10.0 mi Calm Calm - N/A   Clear
7:00 PM 32.0 °F - 12.2 °F 44% 30.51 in 10.0 mi Calm Calm - N/A   Clear
7:21 PM 32.0 °F 27.5 °F 17.6 °F 55% 30.51 in 10.0 mi SE 4.6 mph - N/A   Clear
8:04 PM 32.0 °F 28.7 °F 19.4 °F 60% 30.50 in 10.0 mi SSE 3.5 mph - N/A   Clear
8:25 PM 32.0 °F 28.7 °F 17.6 °F 55% 30.50 in 10.0 mi SSE 3.5 mph - N/A   Clear
9:50 PM 32.0 °F 24.8 °F 19.4 °F 60% 30.50 in 10.0 mi SSE 8.1 mph - N/A   Clear
10:11 PM 32.0 °F 25.6 °F 21.2 °F 64% 30.49 in 10.0 mi SSE 6.9 mph - N/A   Clear
10:54 PM 33.8 °F 27.0 °F 23.0 °F 65% 30.48 in 10.0 mi South 8.1 mph - N/A   Clear
11:15 PM 33.8 °F 27.0 °F 21.2 °F 60% 30.47 in 10.0 mi South 8.1 mph - N/A   Clear
11:37 PM 33.8 °F 25.8 °F 19.4 °F 56% 30.46 in 10.0 mi South 10.4 mph - N/A   Clear
11:58 PM 35.6 °F 27.5 °F 21.2 °F 56% 30.45 in 10.0 mi South 11.5 mph 16.1 mph N/A   Clear